Temperature
19 19 19 19 19 19 18 18 18 18 18 18 18 18 18 18 18 18 18 18 18 18 18 18 18 18 18 18 18 18 18 18 18 18 19 19 18 18 18 18 18 18 18
20 20 19 19 19 19 18 18 18 18 18 18 18 18 18 18 18 18 18 18 18 18 18 18 18 18 18 18 18 18 18 18 18 18 18 18 18 18 18 17 18 18 18
20 20 19 19 19 18 18 18 18 18 18 18 18 18 18 18 18 18 18 18 18 18 18 18 18 18 18 18 18 18 18 18 18 18 18 18 18 18 18 17 18 18 18
19 19 19 19 19 19 18 18 18 18 18 18 18 18 18 18 18 18 18 18 18 18 18 18 18 18 18 18 18 18 18 18 18 18 17 17 17 18 18 18 18 18 17
20 20 19 19 19 19 18 18 18 18 18 18 18 18 18 18 18 18 18 18 18 18 18 18 18 18 18 18 18 18 18 18 18 18 17 17 18 18 18 18 18 17 17
20 20 19 19 19 19 18 18 18 18 18 18 18 18 18 18 18 18 18 18 18 18 18 18 18 18 18 18 18 18 18 18 18 17 17 18 18 18 18 18 18 17 17
20 20 20 19 19 19 18 18 18 18 18 18 18 18 18 18 18 18 18 18 18 18 18 18 18 18 18 18 18 18 18 18 18 18 18 18 18 18 18 18 17 17 17
20 20 20 20 19 19 19 18 18 18 18 18 18 18 18 18 18 18 18 18 18 18 18 18 18 18 18 18 18 18 18 18 18 18 18 18 18 18 18 18 17 17 17
21 20 20 20 19 19 19 19 19 18 18 18 18 18 18 18 18 18 18 18 18 18 18 18 18 18 18 18 18 18 18 18 18 18 18 18 18 18 18 18 18 17 17
21 20 20 19 19 19 19 19 19 19 18 18 18 18 18 18 18 18 18 18 18 18 18 18 18 18 18 18 18 18 18 18 18 18 18 18 18 18 18 18 18 17 17
21 21 20 20 19 19 19 19 19 19 18 18 18 18 18 18 18 18 18 18 18 18 18 18 18 18 18 18 18 18 18 18 18 18 18 18 18 18 18 18 18 18 17
21 21 21 20 20 20 19 19 19 18 18 18 18 18 18 18 18 18 18 18 18 18 18 18 18 18 18 18 18 18 18 18 18 18 18 18 18 18 18 18 18 18 17
21 21 21 20 20 20 20 19 19 19 19 18 18 18 18 18 18 18 18 18 18 18 18 18 18 18 18 18 18 18 18 18 18 18 19 19 18 18 18 18 18 18 17
21 21 21 20 20 20 20 19 19 19 19 18 18 18 18 18 18 18 18 18 18 18 18 18 18 18 18 18 18 18 18 18 18 19 19 19 18 18 18 18 18 18 18
21 21 21 20 20 20 20 20 19 19 19 19 19 19 18 18 18 18 18 18 18 18 18 18 18 18 18 18 18 18 18 18 18 18 19 19 19 18 18 18 18 18 18
22 21 21 20 20 20 20 20 20 19 19 19 19 19 19 19 18 18 18 18 18 18 18 18 18 18 18 18 18 18 18 18 18 18 18 18 18 18 18 18 18 18 18
22 21 20 20 20 20 20 20 20 20 20 19 19 19 19 19 18 18 18 18 18 18 18 18 18 18 18 18 18 18 18 18 18 18 18 18 18 19 19 18 18 18 18
22 21 21 20 20 20 20 20 20 20 20 19 19 19 19 19 19 19 18 18 18 18 18 18 18 18 18 18 18 18 18 18 18 18 18 18 18 18 18 18 18 18 18
22 21 21 21 20 20 20 20 20 20 20 19 19 19 19 19 19 19 18 18 18 18 18 18 18 18 18 18 19 19 19 19 19 18 18 18 18 18 18 18 18 18 18
22 21 21 20 20 20 20 20 20 19 19 19 19 19 19 19 19 19 19 19 18 18 18 18 18 18 18 19 19 19 19 19 19 19 19 18 18 18 18 18 18 18 18
22 21 21 20 20 20 20 20 19 19 19 19 19 19 19 19 19 19 19 19 19 18 18 18 18 19 19 19 19 19 19 19 19 19 19 19 19 18 18 18 18 18 18
22 21 21 21 20 20 20 20 20 20 19 19 20 19 19 19 19 19 19 19 19 19 19 19 19 19 19 19 19 19 19 19 19 19 19 19 19 19 18 18 18 18 18
22 22 21 21 21 21 20 20 20 20 20 20 19 19 19 19 19 19 19 19 19 19 19 19 19 19 19 19 19 19 19 19 19 19 19 19 19 19 19 19 18 18 18
23 22 22 21 21 21 20 20 20 20 20 20 20 20 19 19 19 19 19 19 19 19 19 19 19 19 19 19 19 19 19 19 19 19 19 19 19 19 19 18 18 18 18
24 23 22 21 21 21 21 20 20 20 20 20 20 20 19 19 19 19 19 19 19 19 19 19 19 19 19 19 19 19 19 19 19 19 19 19 19 19 19 18 18 18 18
24 23 22 22 21 21 21 20 20 20 20 20 20 20 19 19 19 19 19 19 19 19 19 19 19 19 19 19 19 19 19 19 19 19 19 19 19 19 19 18 18 18 18
Wind_Speed
10 11 13 12 12 13 14 13 14 14 15 15 16 17 17 18 19 19 20 20 20 20 19 19 18 18 17 16 16 15 14 14 14 15 15 15 14 13 13 12 13 14 15
11 12 14 13 13 14 14 14 14 15 15 15 16 17 17 18 19 19 19 18 19 20 19 18 18 17 17 16 15 14 14 13 13 14 15 14 13 12 11 11 13 13 14
13 13 14 13 14 14 14 14 14 15 15 16 16 17 17 18 18 18 18 17 18 19 18 18 17 17 16 15 15 14 13 12 12 13 13 12 12 12 12 14 15 14 12
13 13 13 14 14 14 14 13 14 14 16 16 16 16 16 17 17 18 18 17 17 18 18 17 17 16 15 14 13 12 11 11 10 11 9 11 12 13 13 14 13 13 12
14 14 14 14 14 14 14 13 13 14 15 16 16 15 16 16 16 17 17 16 16 17 17 17 16 15 14 13 12 10 9 8 7 7 7 13 13 13 12 13 12 12 11
14 14 14 14 13 14 13 12 12 14 15 15 15 15 15 15 16 16 16 16 16 16 16 16 15 14 13 12 10 8 6 6 5 5 9 14 13 12 12 12 11 11 10
14 14 15 14 13 13 13 12 11 13 15 15 15 15 15 15 16 15 15 15 15 15 15 14 14 13 12 10 9 7 6 5 6 5 10 13 13 13 12 11 11 10 10
15 14 14 14 14 13 13 12 13 14 14 14 15 14 14 14 15 15 14 14 14 14 14 13 13 12 11 10 8 6 6 6 5 7 11 13 14 13 11 11 10 10 10
14 14 12 13 13 13 13 13 13 14 14 14 14 14 14 14 14 13 13 13 13 14 13 13 12 11 10 8 7 6 6 6 5 4 10 13 14 13 12 11 11 10 9
11 11 11 13 13 12 12 13 13 13 13 13 13 13 14 14 14 13 13 13 13 12 12 11 11 10 8 8 7 7 7 6 6 4 10 13 15 13 12 11 10 10 9
9 8 9 10 11 13 13 14 13 13 12 12 11 12 11 10 11 12 13 14 13 13 12 11 10 10 9 8 8 7 6 6 4 6 10 15 15 14 12 11 10 10 9
9 7 6 7 9 10 11 12 10 10 11 9 9 10 8 8 9 11 14 14 14 13 12 11 10 10 9 8 9 8 6 7 4 6 11 17 15 14 12 11 11 10 10
10 7 7 6 6 7 7 8 7 7 9 8 9 9 7 7 8 10 9 11 11 12 10 10 9 8 8 6 6 7 7 5 2 6 12 16 15 14 12 12 11 11 11
10 8 7 7 6 5 5 5 6 5 6 6 8 8 7 4 4 6 5 8 8 8 7 7 5 6 5 4 4 4 5 3 3 6 12 16 15 14 13 12 12 12 11
10 9 8 8 6 5 3 2 5 5 5 7 8 7 7 5 5 5 4 5 6 7 6 4 4 4 3 3 4 4 3 3 4 6 10 15 15 15 14 13 13 12 12
10 9 8 8 7 5 3 1 2 5 5 6 6 7 6 5 5 5 5 4 4 5 6 5 4 4 3 3 4 3 3 3 3 6 9 12 15 15 14 14 14 13 13
10 9 9 9 8 6 5 4 4 4 6 5 6 8 7 6 6 4 4 4 3 5 5 3 3 3 3 4 4 4 3 3 3 5 7 9 12 14 14 15 15 14 14
10 9 8 8 9 7 5 4 3 3 5 4 6 7 8 7 7 4 4 4 4 4 3 3 3 3 3 2 2 3 2 2 4 5 6 9 10 11 14 16 15 16 16
10 10 7 6 9 8 6 4 3 3 3 3 5 6 7 8 8 5 3 3 5 3 3 4 4 3 2 3 3 3 3 3 4 5 5 7 9 10 12 15 17 17 17
11 10 9 7 7 7 6 4 2 3 4 3 3 5 7 7 8 6 4 4 4 3 3 2 2 2 2 3 4 3 3 4 4 4 5 5 7 9 11 13 14 14 17
12 11 9 8 8 6 5 5 4 4 4 4 4 6 7 7 7 5 3 4 4 3 4 4 3 3 3 3 3 2 3 3 4 3 4 3 5 7 9 11 12 12 12
13 11 10 9 9 8 5 4 4 4 4 4 3 5 6 6 6 6 5 5 5 3 3 3 3 2 3 3 2 1 1 1 2 5 4 4 4 4 5 9 11 12 11
14 13 12 10 10 9 7 6 5 4 3 4 4 5 5 6 6 4 5 4 4 5 5 5 4 4 3 3 3 2 2 2 1 2 4 3 3 3 4 4 7 9 10
15 14 11 11 10 9 7 7 7 6 5 5 4 5 5 5 6 6 5 5 4 4 5 5 5 4 3 3 2 1 2 1 2 1 2 2 4 3 3 3 3 6 9
15 15 12 11 10 9 7 6 6 5 4 4 5 5 5 5 5 5 5 4 4 4 4 4 4 4 3 3 2 2 3 3 3 2 2 2 2 2 3 3 3 3 6
14 14 14 12 10 10 8 7 6 5 4 4 5 6 6 5 5 6 6 4 4 4 4 4 4 4 3 3 2 2 2 2 3 2 2 2 2 2 3 2 2 2 4
Wind_Direction
83 87 87 86 89 89 88 91 99 105 108 111 112 111 110 113 114 115 116 118 121 121 120 120 120 118 114 111 110 108 105 105 104 103 103 105 107 109 112 116 113 104 109
92 90 90 87 93 94 92 93 98 103 107 111 114 113 112 114 116 117 117 118 121 123 123 123 120 119 117 116 114 112 110 112 116 114 113 111 111 109 108 105 103 112 112
95 94 92 89 93 94 92 94 96 101 107 113 114 114 115 115 117 119 119 120 123 123 124 124 122 121 120 119 118 119 121 124 127 129 128 122 116 111 108 104 107 114 113
99 97 95 95 96 96 96 98 100 103 107 111 113 114 117 119 120 121 122 122 124 124 125 125 124 123 122 122 122 127 133 138 144 148 146 130 121 116 114 114 117 121 121
101 98 100 101 100 99 101 102 103 105 109 112 114 115 117 119 121 123 124 124 125 125 125 126 127 126 125 124 126 133 140 149 160 171 136 117 114 123 122 124 125 128 130
105 104 105 102 102 103 102 103 106 110 113 116 117 119 121 122 123 125 127 126 127 127 127 128 129 129 128 129 134 143 155 169 187 178 130 123 124 133 132 133 133 134 135
110 110 111 107 106 107 105 107 111 117 118 119 122 124 125 126 128 128 129 129 131 132 133 132 132 134 135 138 144 158 180 199 220 165 126 121 130 140 142 142 144 142 140
111 111 117 115 114 115 114 113 113 118 120 124 126 128 128 130 134 134 133 133 133 136 137 137 137 139 141 146 155 176 206 225 213 149 131 127 138 143 144 144 146 145 144
112 116 123 124 122 123 124 122 118 119 122 128 132 132 134 136 139 140 140 139 138 139 140 141 144 145 145 153 167 193 220 243 278 157 134 132 143 146 147 149 150 150 149
111 117 126 132 134 137 133 131 130 131 131 130 131 137 141 144 146 147 147 145 144 146 147 148 150 154 160 169 180 202 228 255 255 161 128 140 148 151 153 156 158 156 155
109 117 127 128 141 145 140 139 143 141 141 140 139 142 147 155 155 157 149 150 152 155 157 158 162 168 177 188 198 215 233 246 222 137 131 147 152 156 160 165 166 165 166
125 126 119 127 139 143 136 140 152 150 150 158 153 157 163 159 158 152 150 154 156 160 163 168 175 184 191 194 199 211 227 238 211 138 141 153 157 162 167 172 174 175 177
132 134 129 124 123 128 128 146 154 149 153 158 154 159 153 150 149 144 155 157 163 167 174 172 185 197 197 191 185 195 217 234 171 134 151 159 162 167 171 177 182 184 186
137 137 134 118 109 101 120 135 144 143 151 147 154 164 153 153 144 144 152 160 168 175 173 173 190 201 186 181 196 204 211 216 166 136 155 164 168 173 177 182 188 192 193
137 135 124 112 103 98 90 139 140 138 146 144 153 165 160 155 148 143 154 163 177 169 167 187 187 186 172 196 215 203 206 204 167 148 157 171 174 180 185 189 194 198 200
137 137 132 128 129 130 136 172 137 142 138 138 151 158 164 157 141 149 159 162 176 165 176 184 175 173 182 198 217 197 200 197 163 155 162 178 185 188 191 194 199 202 206
141 139 140 146 144 151 163 179 160 156 144 144 148 151 159 160 147 153 153 158 173 172 164 175 181 175 194 202 207 209 202 198 179 178 171 183 189 196 199 202 205 207 210
146 143 157 160 150 156 170 179 174 155 140 141 148 150 160 162 155 162 159 166 173 172 165 178 189 191 200 211 205 219 200 186 196 193 192 191 187 193 201 208 210 212 213
146 148 158 157 149 161 171 176 178 144 134 147 149 152 163 170 166 172 170 164 174 179 185 196 181 182 196 212 219 221 213 199 201 214 207 199 190 191 188 203 210 213 214
150 153 158 159 150 161 167 169 176 158 159 164 153 153 161 176 177 179 173 174 184 179 186 206 166 176 200 223 236 226 219 209 203 213 218 209 192 196 192 193 201 213 217
157 159 165 168 159 167 174 173 177 178 179 175 172 164 167 184 182 181 174 169 182 187 187 187 179 204 206 213 234 243 241 217 213 213 215 214 201 200 196 183 189 200 208
162 164 168 172 169 177 176 175 180 175 183 179 173 156 171 185 181 189 178 187 186 187 186 191 190 207 222 207 213 224 249 260 242 219 206 215 208 193 202 195 191 197 201
169 172 177 173 171 182 176 178 180 170 188 175 173 170 183 184 184 193 176 202 185 186 182 193 195 200 219 227 214 203 213 228 244 251 216 204 193 202 216 196 191 191 195
174 175 171 168 169 175 178 182 186 184 189 181 178 175 181 189 190 187 184 195 198 207 176 195 190 205 213 226 231 214 229 217 211 251 258 215 200 207 225 221 190 181 188
175 173 169 163 167 170 182 188 194 197 189 176 174 169 182 195 198 192 185 189 201 209 194 202 180 200 211 221 222 213 224 227 227 225 244 250 228 206 214 214 193 179 183
175 171 168 166 170 172 182 185 188 198 188 178 175 173 189 194 201 198 190 191 203 209 203 199 197 205 219 231 244 249 232 225 227 222 232 247 247 230 207 195 186 190 187
Height
1485 1483 1482 1482 1482 1482 1483 1483 1484 1485 1487 1489 1491 1493 1495 1497 1499 1502 1506 1509 1512 1515 1518 1521 1524 1526 1529 1531 1534 1536 1537 1539 1541 1542 1544 1545 1547 1548 1549 1550 1551 1552 1553
1486 1484 1483 1483 1484 1484 1485 1486 1487 1488 1489 1491 1493 1496 1498 1500 1502 1505 1508 1511 1514 1517 1520 1523 1526 1528 1531 1533 1535 1537 1539 1541 1543 1544 1546 1547 1548 1549 1550 1552 1553 1554 1555
1486 1486 1485 1485 1486 1486 1487 1488 1489 1490 1491 1493 1496 1498 1500 1503 1506 1508 1511 1514 1517 1520 1522 1525 1528 1530 1533 1535 1537 1539 1541 1543 1544 1546 1547 1549 1550 1551 1552 1553 1555 1556 1557
1488 1488 1488 1488 1488 1489 1490 1490 1491 1493 1494 1496 1498 1501 1503 1505 1508 1511 1514 1516 1519 1522 1525 1528 1530 1532 1535 1537 1539 1541 1543 1545 1546 1548 1549 1550 1551 1553 1554 1555 1556 1557 1558
1490 1490 1490 1490 1491 1491 1492 1493 1494 1495 1497 1499 1501 1503 1505 1507 1510 1513 1516 1518 1521 1524 1527 1529 1532 1534 1536 1538 1540 1542 1544 1546 1548 1549 1551 1552 1553 1554 1555 1556 1557 1558 1559
1492 1492 1492 1493 1493 1494 1494 1495 1496 1497 1499 1502 1504 1506 1508 1510 1513 1515 1518 1521 1523 1526 1528 1531 1533 1535 1537 1539 1542 1544 1546 1548 1549 1551 1552 1553 1554 1555 1556 1557 1558 1559 1560
1494 1494 1494 1495 1495 1496 1497 1497 1497 1499 1501 1504 1506 1508 1511 1513 1515 1518 1520 1523 1525 1527 1530 1532 1535 1537 1539 1541 1543 1545 1547 1549 1550 1552 1553 1554 1555 1556 1557 1558 1559 1560 1561
1496 1496 1497 1497 1498 1498 1499 1499 1498 1501 1504 1507 1509 1511 1513 1515 1517 1520 1522 1525 1527 1529 1532 1534 1536 1538 1540 1542 1544 1546 1548 1550 1551 1553 1554 1555 1556 1557 1558 1559 1560 1561 1562
1499 1499 1499 1499 1500 1501 1502 1503 1503 1505 1507 1509 1511 1513 1515 1517 1519 1522 1524 1526 1528 1530 1533 1535 1537 1539 1541 1543 1545 1547 1549 1550 1552 1554 1554 1555 1556 1557 1558 1559 1560 1561 1562
1501 1501 1502 1502 1503 1504 1505 1506 1507 1508 1510 1512 1514 1515 1518 1519 1521 1523 1525 1527 1529 1532 1534 1536 1539 1540 1543 1544 1546 1548 1550 1551 1552 1554 1554 1555 1557 1558 1558 1559 1560 1561 1563
1503 1504 1505 1505 1505 1507 1508 1509 1510 1511 1513 1514 1516 1518 1519 1521 1523 1525 1527 1529 1531 1533 1535 1537 1540 1542 1544 1545 1547 1549 1550 1551 1553 1554 1554 1556 1557 1558 1558 1559 1560 1561 1563
1504 1505 1506 1507 1508 1510 1511 1511 1512 1514 1515 1516 1518 1520 1521 1523 1525 1527 1528 1530 1532 1534 1537 1539 1541 1543 1544 1546 1548 1549 1550 1552 1553 1554 1554 1556 1557 1558 1558 1559 1560 1561 1563
1505 1506 1507 1509 1510 1512 1512 1513 1515 1516 1517 1519 1520 1521 1523 1524 1526 1528 1530 1532 1533 1536 1537 1539 1541 1543 1545 1547 1549 1550 1551 1552 1553 1554 1554 1555 1556 1557 1558 1559 1560 1561 1562
1505 1507 1508 1509 1511 1512 1514 1515 1517 1518 1519 1521 1521 1523 1524 1525 1527 1529 1530 1532 1534 1536 1538 1540 1542 1544 1546 1547 1549 1550 1551 1552 1553 1553 1554 1555 1556 1557 1557 1558 1559 1560 1562
1505 1507 1508 1509 1511 1512 1514 1516 1518 1519 1521 1522 1523 1524 1526 1527 1528 1530 1532 1534 1536 1538 1539 1541 1543 1544 1546 1547 1549 1550 1551 1552 1553 1553 1554 1554 1555 1556 1557 1557 1558 1559 1560
1505 1507 1508 1509 1511 1512 1514 1516 1518 1520 1521 1522 1523 1525 1526 1528 1529 1531 1533 1534 1536 1538 1540 1541 1543 1545 1546 1547 1548 1550 1551 1552 1552 1553 1553 1554 1554 1555 1556 1556 1557 1558 1559
1504 1506 1508 1509 1511 1512 1514 1516 1519 1520 1521 1523 1524 1525 1526 1528 1530 1531 1533 1535 1537 1539 1540 1542 1543 1545 1546 1547 1548 1549 1550 1551 1551 1552 1552 1553 1553 1554 1555 1555 1556 1557 1558
1504 1506 1508 1510 1511 1512 1514 1516 1519 1520 1522 1523 1524 1525 1526 1528 1529 1531 1533 1534 1536 1538 1540 1541 1543 1544 1545 1546 1547 1548 1549 1549 1550 1551 1551 1551 1552 1552 1553 1554 1554 1555 1556
1502 1505 1507 1510 1511 1512 1514 1516 1518 1520 1521 1523 1524 1525 1526 1528 1529 1531 1532 1534 1536 1537 1539 1540 1542 1543 1544 1545 1546 1547 1548 1548 1549 1549 1550 1550 1551 1551 1551 1552 1552 1553 1554
1501 1503 1506 1508 1510 1512 1514 1515 1517 1519 1521 1522 1524 1525 1526 1527 1529 1530 1532 1533 1535 1536 1538 1539 1541 1542 1543 1544 1545 1546 1546 1546 1547 1548 1548 1549 1549 1549 1549 1550 1550 1551 1551
1500 1502 1504 1506 1508 1510 1512 1514 1516 1518 1520 1521 1523 1524 1525 1527 1529 1530 1531 1532 1534 1535 1536 1538 1539 1540 1542 1542 1543 1544 1544 1544 1545 1545 1546 1547 1547 1547 1548 1548 1548 1548 1549
1497 1499 1502 1504 1506 1508 1511 1513 1515 1517 1519 1521 1522 1523 1524 1526 1528 1530 1530 1531 1532 1534 1535 1536 1537 1539 1540 1541 1542 1543 1543 1544 1543 1543 1544 1544 1545 1545 1546 1546 1546 1546 1547
1494 1497 1499 1501 1504 1506 1509 1511 1514 1516 1518 1520 1521 1522 1523 1525 1527 1528 1529 1530 1531 1532 1533 1534 1535 1537 1538 1539 1540 1542 1542 1541 1541 1542 1542 1542 1543 1543 1544 1544 1544 1544 1545
1491 1494 1497 1499 1502 1504 1507 1509 1512 1514 1516 1518 1519 1520 1522 1523 1525 1526 1528 1528 1529 1530 1531 1532 1533 1535 1536 1537 1538 1539 1540 1540 1540 1540 1540 1540 1541 1541 1541 1542 1542 1542 1542
1488 1491 1494 1497 1499 1502 1505 1507 1510 1512 1514 1516 1518 1519 1520 1521 1523 1524 1525 1526 1527 1528 1529 1530 1532 1533 1534 1535 1536 1536 1537 1538 1538 1538 1538 1539 1539 1538 1538 1539 1539 1539 1539
1485 1489 1491 1494 1497 1499 1502 1505 1507 1510 1512 1514 1516 1517 1518 1520 1521 1522 1523 1524 1525 1526 1527 1528 1530 1530 1531 1532 1533 1534 1535 1535 1535 1536 1536 1536 1536 1536 1536 1537 1537 1537 1537